When you browse on this site, cookies collect data to enhance your experience and personalize the content and advertising you see.
Visit our Privacy Policy to learn more. By continuing to use the site, you agree to this use of cookies and data.
  • In Österreich
  • Länderverzeichnis
  • Für 7 Tage
  • Wassertemperatur
  • Satellitenkarten
  • Wetterkarte
  • News
  • Widgets
  • user-avatar
    Anmelden

    Stündliche Wetter Troy

    Heute, 17 Juli, Mittwoch

    Zeit Temperatur Niederschläge Wind Luftdruck Luftfeuchtigkeit
    00:00 +23°C° 1.1 mm 4 m/S 736 mmHg 95%
    01:00 +23°C° 0.1 mm 4 m/S 736 mmHg 95%
    02:00 +23°C° 0.1 mm 4 m/S 736 mmHg 96%
    03:00 +23°C° 0.1 mm 4 m/S 735 mmHg 96%
    04:00 +23°C° 0.1 mm 4 m/S 736 mmHg 96%
    05:00 +23°C° 0.1 mm 4 m/S 736 mmHg 96%
    06:00 +24°C° 0.1 mm 3 m/S 736 mmHg 96%
    07:00 +25°C° 0.3 mm 4 m/S 736 mmHg 95%
    08:00 +26°C° 0.3 mm 4 m/S 736 mmHg 93%
    09:00 +26°C° 0.3 mm 4 m/S 737 mmHg 92%
    10:00 +27°C° 1.7 mm 4 m/S 737 mmHg 89%
    11:00 +28°C° 1.7 mm 4 m/S 737 mmHg 87%
    12:00 +29°C° 1.7 mm 4 m/S 736 mmHg 85%
    13:00 +29°C° 1.2 mm 4 m/S 736 mmHg 84%
    14:00 +29°C° 1.2 mm 4 m/S 736 mmHg 84%
    15:00 +30°C° 1.2 mm 4 m/S 736 mmHg 84%
    16:00 +29°C° 1.1 mm 4 m/S 736 mmHg 86%
    17:00 +29°C° 1.1 mm 3 m/S 736 mmHg 88%
    18:00 +28°C° 1.1 mm 3 m/S 736 mmHg 90%
    19:00 +27°C° 0.4 mm 2 m/S 737 mmHg 92%
    20:00 +26°C° 0.4 mm 2 m/S 737 mmHg 93%
    21:00 +25°C° 0.4 mm 1 m/S 737 mmHg 95%
    22:00 +25°C° 0 mm 1 m/S 737 mmHg 95%
    23:00 +24°C° 0 mm 1 m/S 737 mmHg 95%

    Morgen, 18 Juli, Donnerstag

    Zeit Temperatur Niederschläge Wind Luftdruck Luftfeuchtigkeit
    00:00 +24°C° 0 mm 1 m/S 737 mmHg 95%
    01:00 +23°C° 0 mm 1 m/S 737 mmHg 96%
    02:00 +23°C° 0 mm 1 m/S 737 mmHg 96%
    03:00 +23°C° 0 mm 1 m/S 737 mmHg 96%
    04:00 +23°C° 0 mm 1 m/S 737 mmHg 95%
    05:00 +24°C° 0 mm 1 m/S 738 mmHg 95%
    06:00 +24°C° 0 mm 1 m/S 738 mmHg 94%
    07:00 +26°C° 0 mm 1 m/S 738 mmHg 90%
    08:00 +27°C° 0 mm 2 m/S 738 mmHg 86%
    09:00 +29°C° 0 mm 2 m/S 738 mmHg 81%
    10:00 +30°C° 0 mm 2 m/S 738 mmHg 78%
    11:00 +31°C° 0 mm 2 m/S 738 mmHg 74%
    12:00 +32°C° 0 mm 2 m/S 738 mmHg 71%
    13:00 +32°C° 0 mm 2 m/S 737 mmHg 72%
    14:00 +33°C° 0 mm 3 m/S 737 mmHg 73%
    15:00 +34°C° 0 mm 3 m/S 737 mmHg 74%
    16:00 +33°C° 0.4 mm 3 m/S 737 mmHg 78%
    17:00 +31°C° 0.4 mm 3 m/S 737 mmHg 82%
    18:00 +30°C° 0.4 mm 2 m/S 737 mmHg 86%
    19:00 +29°C° 0 mm 3 m/S 737 mmHg 87%
    20:00 +28°C° 0 mm 3 m/S 737 mmHg 88%
    21:00 +27°C° 0 mm 3 m/S 737 mmHg 88%
    22:00 +27°C° 0 mm 3 m/S 737 mmHg 90%
    23:00 +27°C° 0 mm 3 m/S 737 mmHg 92%

    übermorgen, 19 Juli, Freitag

    Zeit Temperatur Niederschläge Wind Luftdruck Luftfeuchtigkeit
    00:00 +26°C° 0 mm 3 m/S 737 mmHg 93%
    01:00 +26°C° 0 mm 3 m/S 737 mmHg 94%
    02:00 +26°C° 0 mm 3 m/S 737 mmHg 95%
    03:00 +26°C° 0 mm 3 m/S 737 mmHg 96%
    04:00 +26°C° 0 mm 3 m/S 737 mmHg 95%
    05:00 +26°C° 0 mm 3 m/S 737 mmHg 95%
    06:00 +27°C° 0 mm 3 m/S 738 mmHg 94%
    07:00 +28°C° 0 mm 3 m/S 738 mmHg 91%
    08:00 +30°C° 0 mm 3 m/S 738 mmHg 88%
    09:00 +32°C° 0 mm 4 m/S 738 mmHg 85%
    10:00 +33°C° 0 mm 4 m/S 738 mmHg 82%
    11:00 +34°C° 0 mm 4 m/S 738 mmHg 78%
    12:00 +35°C° 0 mm 4 m/S 738 mmHg 75%
    13:00 +35°C° 0.7 mm 4 m/S 738 mmHg 76%
    14:00 +34°C° 0.7 mm 4 m/S 738 mmHg 76%
    15:00 +34°C° 0.7 mm 4 m/S 737 mmHg 77%
    16:00 +33°C° 1 mm 3 m/S 737 mmHg 80%
    17:00 +31°C° 1 mm 3 m/S 737 mmHg 83%
    18:00 +30°C° 1 mm 3 m/S 737 mmHg 87%
    19:00 +29°C° 0 mm 3 m/S 737 mmHg 88%
    20:00 +29°C° 0 mm 3 m/S 738 mmHg 90%
    21:00 +28°C° 0 mm 3 m/S 738 mmHg 91%
    22:00 +27°C° 0 mm 3 m/S 738 mmHg 92%
    23:00 +27°C° 0 mm 2 m/S 738 mmHg 93%

    20 Juli, Samstag

    Zeit Temperatur Niederschläge Wind Luftdruck Luftfeuchtigkeit
    00:00 +26°C° 0 mm 2 m/S 738 mmHg 94%
    01:00 +26°C° 0 mm 2 m/S 738 mmHg 95%
    02:00 +26°C° 0 mm 2 m/S 738 mmHg 95%
    03:00 +25°C° 0 mm 3 m/S 738 mmHg 96%
    04:00 +26°C° 0 mm 3 m/S 738 mmHg 95%
    05:00 +26°C° 0 mm 3 m/S 738 mmHg 95%
    06:00 +27°C° 0 mm 4 m/S 738 mmHg 94%
    07:00 +28°C° 0.1 mm 4 m/S 738 mmHg 91%
    08:00 +29°C° 0.1 mm 4 m/S 738 mmHg 88%
    09:00 +32°C° 0.1 mm 4 m/S 738 mmHg 84%
    10:00 +32°C° 0.2 mm 4 m/S 738 mmHg 80%
    11:00 +33°C° 0.2 mm 4 m/S 738 mmHg 76%
    12:00 +34°C° 0.2 mm 4 m/S 737 mmHg 72%
    13:00 +34°C° 0.1 mm 4 m/S 737 mmHg 73%
    14:00 +34°C° 0.1 mm 4 m/S 737 mmHg 74%
    15:00 +34°C° 0.1 mm 4 m/S 736 mmHg 75%
    16:00 +33°C° 1.2 mm 4 m/S 736 mmHg 78%
    17:00 +32°C° 1.2 mm 4 m/S 736 mmHg 82%
    18:00 +30°C° 1.2 mm 4 m/S 736 mmHg 86%
    19:00 +29°C° 1.7 mm 3 m/S 737 mmHg 87%
    20:00 +28°C° 1.7 mm 3 m/S 737 mmHg 88%
    21:00 +27°C° 1.7 mm 2 m/S 738 mmHg 88%
    22:00 +26°C° 0 mm 2 m/S 737 mmHg 89%
    23:00 +26°C° 0 mm 2 m/S 737 mmHg 90%

    21 Juli, Sonntag

    Zeit Temperatur Niederschläge Wind Luftdruck Luftfeuchtigkeit
    00:00 +25°C° 0 mm 1 m/S 736 mmHg 90%
    01:00 +25°C° 0 mm 2 m/S 736 mmHg 91%
    02:00 +25°C° 0 mm 2 m/S 736 mmHg 92%
    03:00 +25°C° 0 mm 2 m/S 736 mmHg 93%
    04:00 +25°C° 0 mm 2 m/S 736 mmHg 93%
    05:00 +26°C° 0 mm 2 m/S 737 mmHg 93%
    06:00 +26°C° 0 mm 3 m/S 737 mmHg 94%
    07:00 +27°C° 1.1 mm 3 m/S 737 mmHg 90%
    08:00 +29°C° 1.1 mm 4 m/S 737 mmHg 87%
    09:00 +30°C° 1.1 mm 5 m/S 737 mmHg 84%
    10:00 +32°C° 0.2 mm 5 m/S 736 mmHg 81%
    11:00 +32°C° 0.2 mm 5 m/S 736 mmHg 78%
    12:00 +33°C° 0.2 mm 5 m/S 735 mmHg 75%
    13:00 +33°C° 0.4 mm 5 m/S 735 mmHg 76%
    14:00 +33°C° 0.4 mm 5 m/S 735 mmHg 77%
    15:00 +33°C° 0.4 mm 5 m/S 734 mmHg 78%
    16:00 +32°C° 0.7 mm 5 m/S 734 mmHg 81%
    17:00 +30°C° 0.7 mm 4 m/S 734 mmHg 84%
    18:00 +29°C° 0.7 mm 4 m/S 734 mmHg 87%
    19:00 +28°C° 1.1 mm 4 m/S 734 mmHg 88%
    20:00 +27°C° 1.1 mm 4 m/S 734 mmHg 89%
    21:00 +26°C° 1.1 mm 5 m/S 734 mmHg 90%
    22:00 +26°C° 0.7 mm 4 m/S 734 mmHg 91%
    23:00 +25°C° 0.7 mm 3 m/S 734 mmHg 93%

    22 Juli, Montag

    Zeit Temperatur Niederschläge Wind Luftdruck Luftfeuchtigkeit
    00:00 +25°C° 0.7 mm 3 m/S 733 mmHg 94%
    01:00 +25°C° 0.9 mm 3 m/S 734 mmHg 95%
    02:00 +24°C° 0.9 mm 3 m/S 734 mmHg 96%
    03:00 +24°C° 0.9 mm 3 m/S 734 mmHg 97%
    04:00 +22°C° 0 mm 4 m/S 734 mmHg 97%
    05:00 +22°C° 0 mm 4 m/S 735 mmHg 97%
    06:00 +21°C° 0 mm 5 m/S 735 mmHg 96%
    07:00 +21°C° 0 mm 5 m/S 735 mmHg 95%
    08:00 +21°C° 0 mm 5 m/S 736 mmHg 93%
    09:00 +21°C° 0 mm 6 m/S 737 mmHg 91%
    10:00 +21°C° 0 mm 6 m/S 737 mmHg 90%
    11:00 +20°C° 0 mm 6 m/S 737 mmHg 88%
    12:00 +20°C° 0 mm 6 m/S 737 mmHg 86%
    13:00 +20°C° 0 mm 6 m/S 738 mmHg 85%
    14:00 +20°C° 0 mm 6 m/S 738 mmHg 85%
    15:00 +20°C° 0 mm 6 m/S 738 mmHg 84%
    16:00 +20°C° 0 mm 5 m/S 738 mmHg 85%
    17:00 +20°C° 0 mm 5 m/S 739 mmHg 86%
    18:00 +20°C° 0 mm 4 m/S 739 mmHg 87%
    19:00 +19°C° 0 mm 4 m/S 740 mmHg 87%
    20:00 +18°C° 0 mm 4 m/S 740 mmHg 87%
    21:00 +17°C° 0 mm 4 m/S 740 mmHg 87%
    22:00 +16°C° 0 mm 3 m/S 740 mmHg 87%
    23:00 +14°C° 0 mm 3 m/S 740 mmHg 88%
    Mehr zeigen